Wind_Speed
8 8 7 8 11 11 3 7 9 9 8 8 7 6 6 6 7 7 4 3 6 9
10 9 4 3 5 2 7 9 8 8 8 7 9 7 7 9 7 3 5 6 6 8
12 10 8 5 5 4 7 2 9 8 7 7 6 8 8 10 8 7 8 9 8 6
13 11 10 9 7 4 3 4 5 8 9 8 9 9 8 10 3 6 8 9 7 7
15 12 12 11 9 6 5 7 8 8 9 10 11 11 10 10 8 8 8 10 8 8
17 16 14 13 11 9 9 8 9 9 9 11 10 10 12 10 8 7 10 9 7 8
15 18 17 15 13 13 12 10 10 10 10 10 10 10 11 10 10 9 9 8 8 9
16 19 15 14 13 14 14 12 11 10 11 10 11 9 11 8 10 10 9 10 8 11
15 14 15 14 14 13 12 10 10 11 11 10 5 11 11 10 9 7 10 8 8 7
9 14 13 11 8 10 9 7 5 4 7 6 5 3 8 9 8 9 6 5 4 4
14 10 9 9 4 10 8 7 8 10 9 7 4 2 1 4 6 6 5 4 5 4
12 11 9 11 10 6 5 9 17 9 9 8 9 5 5 10 6 7 8 9 8 7
11 11 9 10 10 10 9 12 12 10 8 10 10 6 6 10 6 3 5 5 5 8
10 10 9 10 11 11 13 15 13 11 10 9 9 10 8 7 9 7 5 2 2 5
Wind_Direction
203 212 221 230 260 210 165 190 161 185 208 220 212 222 224 223 225 213 238 272 315 315
202 227 192 263 208 99 211 198 181 193 199 209 210 221 223 234 225 249 237 249 255 274
197 201 209 215 232 256 253 270 148 201 205 214 216 228 230 227 230 239 249 250 251 264
197 198 199 206 216 236 283 214 203 201 210 212 213 219 229 268 235 224 252 265 287 273
204 199 199 208 213 207 204 187 198 211 221 223 232 222 220 228 254 236 252 252 252 265
200 199 207 205 212 210 211 201 211 215 224 221 223 226 224 230 238 234 236 254 261 250
210 215 215 206 209 210 220 217 224 218 222 228 232 213 215 218 228 232 241 240 244 265
233 226 223 194 206 211 210 216 220 217 224 219 231 214 221 225 218 230 247 249 253 250
226 218 207 189 189 195 198 207 211 219 219 217 216 238 222 223 254 255 244 264 271 262
149 144 133 137 170 159 162 168 173 175 145 131 204 274 232 226 240 265 258 266 262 271
163 158 144 133 97 104 108 106 110 98 80 73 63 83 191 173 130 114 90 67 65 71
174 165 167 170 167 148 117 109 104 100 89 71 74 96 114 120 123 108 103 90 90 70
155 145 143 159 153 153 139 125 136 120 93 78 73 88 113 90 85 109 124 123 61 42
123 132 135 145 138 128 139 139 128 131 128 106 83 70 72 66 84 65 12 37 113 21
Height
860 860 860 861 861 860 862 865 866 869 872 874 875 876 876 876 876 876 877 877 876 873
858 859 859 860 860 860 863 863 866 868 871 873 874 875 875 875 875 876 877 877 877 876
856 858 860 861 860 861 860 861 864 868 869 871 873 874 875 873 874 876 876 875 874 876
853 855 857 859 860 860 859 861 865 867 869 870 871 872 873 873 874 874 875 874 874 874
849 852 854 857 859 859 861 862 864 866 867 869 869 871 872 872 871 872 874 873 873 873
845 849 851 853 856 858 859 861 862 863 865 866 867 867 869 870 870 871 871 871 870 871
844 845 847 849 852 854 858 859 860 861 862 863 864 865 867 868 869 869 869 870 870 870
841 843 843 845 849 851 854 856 857 859 860 861 862 860 862 864 866 867 867 867 868 867
839 840 842 844 846 849 851 853 854 856 857 858 858 858 861 864 866 864 866 865 865 866
839 840 841 842 847 848 850 852 855 856 856 857 856 858 859 861 863 865 865 866 865 866
840 842 842 843 847 846 851 851 855 857 858 859 858 859 859 860 861 863 865 865 865 866
842 844 847 849 849 851 853 853 854 861 861 861 859 860 859 860 863 864 865 866 866 867
842 846 848 850 851 853 856 856 858 861 862 863 862 862 861 860 862 866 866 867 867 867
846 848 849 851 852 854 856 858 860 861 863 864 865 865 864 864 863 866 866 867 869 868